This demonstration page uses our WeatherBlox Daily Observations layout. Learn more.

38.88101, -77.10428

Hourly Observations for March 21, 2020

Temp ( °F °C ) Dew Point ( °F °C ) Humidity (%) Winds ( mph kmh ) Pressure ( in mb ) Visibility ( mi km ) Precip ( " mm )
12:52 am 00:52 Clear 68 20 54 12.2 61 61 NNW 7 11 30.01 1016 10 16.0934 0 0
1:52 am 01:52 Cloudy 69 20.6 54 12.2 59 59 NW 7 11 30.04 1017 10 16.0934 0 0
2:52 am 02:52 Cloudy with Light Rain 64 17.8 56 13.3 75 75 NNW 13 20 30.06 1018 10 16.0934 0.001 0.001
3:52 am 03:52 Cloudy with Light Rain 61 16.1 51 10.6 70 70 NNW 16 26 30.09 1019 10 16.0934 0.01 0.254
4:52 am 04:52 Cloudy with Light Rain 56 13.3 51 10.6 84 84 N 14 22 30.11 1020 7 11.26538 0.05 1.27
5:52 am 05:52 Cloudy 54 12.2 43 6.1 67 67 N 17 28 30.15 1021 10 16.0934 0.01 0.254
6:52 am 06:52 Cloudy with Light Rain 51 10.6 42 5.6 71 71 NNW 15 24 30.2 1023 10 16.0934 0.001 0.001
7:52 am 07:52 Mostly Cloudy 51 10.6 40 4.4 66 66 N 20 31 30.23 1024 10 16.0934 0.01 0.254
8:52 am 08:52 Mostly Cloudy 50 10 36 2.2 59 59 N 18 30 30.28 1025 10 16.0934 0 0
9:52 am 09:52 Mostly Cloudy 49 9.4 35 1.7 59 59 N 18 30 30.3 1026 10 16.0934 0 0
10:52 am 10:52 Mostly Cloudy 52 11.1 35 1.7 53 53 N 10 17 30.31 1027 10 16.0934 0 0
11:52 am 11:52 Mostly Cloudy 54 12.2 35 1.7 49 49 N 10 17 30.35 1028 10 16.0934 0 0
12:52 pm 12:52 Mostly Cloudy 54 12.2 34 1.1 47 47 NNW 14 22 30.35 1028 10 16.0934 0 0
1:52 pm 13:52 Cloudy 51 10.6 33 0.6 50 50 N 14 22 30.34 1028 10 16.0934 0 0
2:52 pm 14:52 Cloudy 51 10.6 31 -0.6 46 46 NNE 8 13 30.33 1027 10 16.0934 0 0
3:52 pm 15:52 Cloudy 52 11.1 31 -0.6 45 45 N 8 13 30.32 1027 10 16.0934 0 0
4:52 pm 16:52 Cloudy 52 11.1 31 -0.6 45 45 N 9 15 30.32 1027 10 16.0934 0 0
5:52 pm 17:52 Cloudy 52 11.1 31 -0.6 45 45 N 9 15 30.34 1027 10 16.0934 0 0
6:52 pm 18:52 Cloudy 51 10.6 31 -0.6 46 46 N 9 15 30.35 1028 10 16.0934 0 0
7:52 pm 19:52 Cloudy 51 10.6 31 -0.6 46 46 NNE 3 6 30.37 1028 10 16.0934 0 0
8:52 pm 20:52 Cloudy 51 10.6 31 -0.6 46 46 NE 8 13 30.38 1029 10 16.0934 0 0
9:52 pm 21:52 Cloudy 50 10 31 -0.6 48 48 NNE 12 19 30.4 1030 10 16.0934 0 0
10:52 pm 22:52 Cloudy 49 9.4 29 -1.7 46 46 N 10 17 30.42 1030 10 16.0934 0 0
11:52 pm 23:52 Cloudy 48 8.9 27 -2.8 44 44 N 10 17 30.44 1031 10 16.0934 0 0

Powered by AerisWeather